Flag for Australia Weather past 2 weeks in Darwin, Northern Territory, Australia

Now
84 °F

Passing clouds.


Feels Like: 90 °F
Forecast: 74 / 89 °F
Wind: 9 mph from Northeast

Location: Darwin Airport

Current Time: Jun 3, 2015 at 7:29:03 PM

Latest Report: Jun 3, 2015 at 6:30 PM


Visibility: N/A

Pressure: 29.89 "Hg

Humidity: 66%

Dew point: 72 °F

Location of DarwinLocation

Historic Weather in Darwin — Graph

°F

Darwin temperature yesterday

Maximum temperature yesterday: 91 °F (at 3:00 PM)
Minimum temperature yesterday: 77 °F (at 7:30 AM)
Average temperature yesterday: 83 °F

Past Weeks' High & Low Weather Summary

 TemperatureHumidityPressure
High93 °F (May 26, 2:00 PM)100% (May 21, 5:00 AM)30.04 "Hg (May 21, 5:00 AM)
Low68 °F (May 24, 3:30 AM)19% (May 24, 1:30 PM)29.80 "Hg (Jun 1, 3:30 PM)
Average80 °F69%29.92 "Hg
* Reported May 19 6:30 PM — Jun 3 6:30 PM, Darwin, Weather by CustomWeather, © 2015

Note: Actual official high and low records may vary slightly from our data, if they occured in-between our weather recording intervals... More about our weather records

Advertising

Darwin weather history for previous 24 hours

 ConditionsComfort  
Time TempWeatherWind HumidityBarometerVisibility
6:30 PM
Wed, Jun 3
84 °FPassing clouds.9 mph66%29.89 "HgN/A
5:30 PM88 °FSunny.10 mph46%29.86 "Hg10 mi
5:00 PM90 °FSunny.13 mph43%29.86 "Hg10 mi
4:30 PM90 °FSunny.14 mph43%29.86 "Hg10 mi
4:00 PM90 °FSunny.15 mph43%29.86 "Hg10 mi
3:30 PM90 °FSunny.15 mph43%29.86 "Hg10 mi
3:00 PM91 °FSunny.15 mph41%29.86 "Hg10 mi
2:30 PM91 °FSunny.17 mph41%29.86 "Hg10 mi
2:00 PM90 °FSunny.18 mph43%29.89 "Hg10 mi
1:30 PM88 °FSunny.20 mph43%29.89 "Hg10 mi
12:30 PM88 °FSunny.20 mph43%29.92 "Hg10 mi
12:00 PM88 °FSunny.20 mph43%29.92 "Hg10 mi
11:30 AM86 °FSunny.21 mph46%29.95 "Hg10 mi
11:00 AM84 °FSunny.20 mph48%29.95 "Hg10 mi
10:30 AM84 °FSunny.16 mph48%29.95 "Hg10 mi
10:00 AM82 °FSunny.17 mph51%29.95 "Hg10 mi
9:30 AM81 °FSunny.15 mph58%29.95 "Hg10 mi
9:00 AM79 °FSunny.13 mph58%29.95 "Hg10 mi
8:30 AM77 °FSunny.12 mph57%29.95 "Hg10 mi
8:00 AM75 °FSunny.9 mph61%29.92 "Hg10 mi
7:30 AM73 °FClear.9 mph65%29.92 "Hg10 mi
7:00 AM73 °FClear.9 mph65%29.92 "Hg10 mi
6:30 AM75 °FClear.9 mph61%29.92 "Hg10 mi
6:00 AM75 °FClear.9 mph61%29.89 "Hg10 mi
5:30 AM75 °FClear.10 mph61%29.89 "Hg10 mi
5:00 AM77 °FClear.10 mph57%29.89 "Hg10 mi
4:30 AM77 °FClear.9 mph57%29.89 "Hg10 mi
4:00 AM79 °FClear.9 mph54%29.89 "Hg10 mi
3:30 AM81 °FClear.9 mph48%29.89 "Hg10 mi
3:00 AM81 °FClear.10 mph48%29.89 "Hg10 mi
2:30 AM81 °FClear.10 mph48%29.92 "Hg10 mi
2:00 AM81 °FClear.12 mph48%29.92 "Hg10 mi
1:30 AM81 °FClear.10 mph48%29.92 "Hg10 mi
12:30 AM81 °FClear.10 mph51%29.92 "Hg10 mi
12:00 AM81 °FClear.12 mph48%29.92 "Hg10 mi
11:30 PM
Tue, Jun 2
82 °FClear.10 mph48%29.92 "Hg10 mi
11:00 PM82 °FClear.9 mph48%29.92 "Hg10 mi
10:30 PM77 °FClear.5 mph79%29.92 "Hg10 mi
10:00 PM77 °FClear.6 mph74%29.92 "Hg10 mi
9:30 PM79 °FClear.6 mph70%29.92 "Hg10 mi
9:00 PM79 °FClear.7 mph70%29.92 "Hg10 mi
8:30 PM79 °FClear.3 mph74%29.89 "Hg10 mi
8:00 PM81 °FClear.7 mph66%29.89 "Hg10 mi
7:30 PM81 °FClear.7 mph66%29.89 "Hg10 mi
7:00 PM84 °FClear.6 mph62%29.86 "Hg10 mi
Weather by CustomWeather, © 2015

See weather overviewHow to use our weather pages